Time,TemperatureF,DewpointF,PressureIn,WindDirection,WindDirectionDegrees,WindSpeedMPH,WindSpeedGustMPH,Humidity,HourlyPrecipIn,Conditions,Clouds,dailyrainin,SoftwareType,DateUTC
2013-07-23 00:10:00,51.9,51.0,30.12,West,261,0.0,0.0,96,0.00,,,0.00,weatherlink.com 1.10,2013-07-23 07:10:00,
2013-07-23 00:25:00,51.6,51.0,30.12,WSW,249,1.0,4.0,96,0.00,,,0.00,weatherlink.com 1.10,2013-07-23 07:25:00,
2013-07-23 00:40:00,51.4,50.0,30.12,SW,236,0.0,1.0,96,0.00,,,0.00,weatherlink.com 1.10,2013-07-23 07:40:00,
2013-07-23 00:55:00,51.4,50.0,30.12,WSW,257,0.0,0.0,96,0.00,,,0.00,weatherlink.com 1.10,2013-07-23 07:55:00,
2013-07-23 01:10:00,51.4,50.0,30.12,West,264,0.0,0.0,96,0.00,,,0.00,weatherlink.com 1.10,2013-07-23 08:10:00,
2013-07-23 01:25:00,51.7,50.0,30.12,West,274,0.0,0.0,95,0.00,,,0.00,weatherlink.com 1.10,2013-07-23 08:25:00,
2013-07-23 01:40:00,51.8,51.0,30.12,West,274,0.0,0.0,95,0.00,,,0.00,weatherlink.com 1.10,2013-07-23 08:40:00,
2013-07-23 01:55:00,51.7,50.0,30.12,West,274,0.0,0.0,95,0.00,,,0.00,weatherlink.com 1.10,2013-07-23 08:55:00,
2013-07-23 02:10:00,51.5,50.0,30.12,West,274,0.0,1.0,95,0.00,,,0.00,weatherlink.com 1.10,2013-07-23 09:10:00,
2013-07-23 02:25:00,51.3,50.0,30.11,West,274,0.0,0.0,95,0.00,,,0.00,weatherlink.com 1.10,2013-07-23 09:25:00,
2013-07-23 02:40:00,51.1,50.0,30.11,West,274,0.0,2.0,95,0.00,,,0.00,weatherlink.com 1.10,2013-07-23 09:40:00,
2013-07-23 02:55:00,50.8,50.0,30.11,West,274,0.0,1.0,95,0.00,,,0.00,weatherlink.com 1.10,2013-07-23 09:55:00,
2013-07-23 03:10:00,50.8,50.0,30.11,West,274,0.0,1.0,95,0.00,,,0.00,weatherlink.com 1.10,2013-07-23 10:10:00,
2013-07-23 03:25:00,50.8,50.0,30.11,West,274,0.0,0.0,95,0.00,,,0.00,weatherlink.com 1.10,2013-07-23 10:25:00,
2013-07-23 03:40:00,50.9,50.0,30.11,West,274,0.0,0.0,96,0.00,,,0.00,weatherlink.com 1.10,2013-07-23 10:40:00,
2013-07-23 03:55:00,50.9,50.0,30.11,West,274,0.0,0.0,96,0.00,,,0.00,weatherlink.com 1.10,2013-07-23 10:55:00,
2013-07-23 04:11:00,50.8,50.0,30.12,West,274,0.0,0.0,96,0.00,,,0.00,weatherlink.com 1.10,2013-07-23 11:11:00,
2013-07-23 04:26:00,50.9,50.0,30.12,West,274,0.0,0.0,96,0.00,,,0.00,weatherlink.com 1.10,2013-07-23 11:26:00,
2013-07-23 04:41:00,50.9,50.0,30.12,West,274,0.0,0.0,96,0.00,,,0.00,weatherlink.com 1.10,2013-07-23 11:41:00,
2013-07-23 04:56:00,51.0,50.0,30.12,West,274,0.0,0.0,96,0.00,,,0.00,weatherlink.com 1.10,2013-07-23 11:56:00,
2013-07-23 05:11:00,50.9,50.0,30.12,West,274,0.0,0.0,96,0.00,,,0.00,weatherlink.com 1.10,2013-07-23 12:11:00,
2013-07-23 05:26:00,50.9,50.0,30.12,WSW,238,0.0,0.0,96,0.00,,,0.00,weatherlink.com 1.10,2013-07-23 12:26:00,
2013-07-23 05:41:00,51.0,50.0,30.12,SW,219,0.0,0.0,96,0.00,,,0.00,weatherlink.com 1.10,2013-07-23 12:41:00,
2013-07-23 05:56:00,51.0,50.0,30.12,SW,219,0.0,0.0,96,0.00,,,0.00,weatherlink.com 1.10,2013-07-23 12:56:00,
2013-07-23 06:11:00,51.2,50.0,30.12,SW,219,0.0,0.0,96,0.00,,,0.00,weatherlink.com 1.10,2013-07-23 13:11:00,
2013-07-23 06:26:00,51.2,50.0,30.13,SW,219,0.0,0.0,96,0.00,,,0.00,weatherlink.com 1.10,2013-07-23 13:26:00,
2013-07-23 06:41:00,51.2,50.0,30.13,SW,219,0.0,0.0,96,0.00,,,0.00,weatherlink.com 1.10,2013-07-23 13:41:00,
2013-07-23 06:56:00,51.1,50.0,30.13,SW,219,1.0,1.0,96,0.00,,,0.00,weatherlink.com 1.10,2013-07-23 13:56:00,
2013-07-23 07:11:00,51.0,50.0,30.14,WSW,240,0.0,3.0,96,0.00,,,0.00,weatherlink.com 1.10,2013-07-23 14:11:00,
2013-07-23 07:26:00,50.8,50.0,30.14,WSW,240,0.0,2.0,96,0.00,,,0.00,weatherlink.com 1.10,2013-07-23 14:26:00,
2013-07-23 07:41:00,50.8,50.0,30.14,WSW,240,0.0,2.0,96,0.00,,,0.00,weatherlink.com 1.10,2013-07-23 14:41:00,
2013-07-23 07:56:00,50.8,50.0,30.14,WSW,240,1.0,1.0,96,0.00,,,0.00,weatherlink.com 1.10,2013-07-23 14:56:00,
2013-07-23 08:11:00,50.9,50.0,30.14,West,277,0.0,2.0,96,0.00,,,0.00,weatherlink.com 1.10,2013-07-23 15:11:00,
2013-07-23 08:26:00,51.2,50.0,30.15,West,273,0.0,4.0,97,0.00,,,0.00,weatherlink.com 1.10,2013-07-23 15:26:00,
2013-07-23 08:41:00,51.3,51.0,30.15,NW,304,1.0,4.0,97,0.00,,,0.00,weatherlink.com 1.10,2013-07-23 15:41:00,
2013-07-23 08:56:00,51.4,51.0,30.15,West,274,2.0,3.0,97,0.00,,,0.00,weatherlink.com 1.10,2013-07-23 15:56:00,
2013-07-23 09:11:00,51.5,51.0,30.15,West,281,1.0,3.0,97,0.00,,,0.00,weatherlink.com 1.10,2013-07-23 16:11:00,
2013-07-23 09:26:00,51.5,51.0,30.15,West,275,1.0,4.0,97,0.00,,,0.00,weatherlink.com 1.10,2013-07-23 16:26:00,
2013-07-23 09:41:00,51.6,51.0,30.15,West,277,3.0,4.0,97,0.00,,,0.00,weatherlink.com 1.10,2013-07-23 16:41:00,
2013-07-23 09:56:00,51.3,51.0,30.15,WSW,254,2.0,5.0,98,0.00,,,0.00,weatherlink.com 1.10,2013-07-23 16:56:00,
2013-07-23 10:11:00,51.5,51.0,30.15,WSW,246,4.0,4.0,98,0.00,,,0.00,weatherlink.com 1.10,2013-07-23 17:11:00,
2013-07-23 10:26:00,51.8,51.0,30.15,NW,316,0.0,3.0,98,0.00,,,0.00,weatherlink.com 1.10,2013-07-23 17:26:00,
2013-07-23 10:41:00,52.0,51.0,30.15,West,259,3.0,6.0,97,0.00,,,0.00,weatherlink.com 1.10,2013-07-23 17:41:00,
2013-07-23 10:56:00,51.9,51.0,30.15,West,280,3.0,5.0,97,0.00,,,0.00,weatherlink.com 1.10,2013-07-23 17:56:00,
2013-07-23 11:11:00,52.2,51.0,30.15,NW,307,4.0,4.0,97,0.00,,,0.00,weatherlink.com 1.10,2013-07-23 18:11:00,
2013-07-23 11:26:00,52.1,51.0,30.14,WNW,302,0.0,6.0,97,0.00,,,0.00,weatherlink.com 1.10,2013-07-23 18:26:00,
2013-07-23 11:41:00,52.3,52.0,30.14,WSW,237,1.0,5.0,97,0.00,,,0.00,weatherlink.com 1.10,2013-07-23 18:41:00,
2013-07-23 12:41:00,54.4,53.0,30.14,WSW,249,5.0,6.0,95,0.00,,,0.00,weatherlink.com 1.10,2013-07-23 19:41:00,
2013-07-23 13:11:00,55.0,53.0,30.14,NW,319,2.0,6.0,93,0.00,,,0.00,weatherlink.com 1.10,2013-07-23 20:11:00,
2013-07-23 13:30:00,55.7,54.0,30.14,WSW,254,6.0,8.0,92,0.00,,,0.00,weatherlink.com 1.10,2013-07-23 20:30:00,
2013-07-23 13:41:00,56.1,54.0,30.14,WNW,295,3.0,9.0,91,0.00,,,0.00,weatherlink.com 1.10,2013-07-23 20:41:00,
2013-07-23 13:56:00,55.0,53.0,30.13,NW,307,3.0,10.0,92,0.00,,,0.00,weatherlink.com 1.10,2013-07-23 20:56:00,
2013-07-23 14:11:00,54.7,53.0,30.14,WNW,300,4.0,8.0,93,0.00,,,0.00,weatherlink.com 1.10,2013-07-23 21:11:00,
2013-07-23 14:26:00,54.0,52.0,30.14,WNW,287,1.0,10.0,92,0.00,,,0.00,weatherlink.com 1.10,2013-07-23 21:26:00,
2013-07-23 14:56:00,53.0,52.0,30.14,NW,320,2.0,9.0,95,0.00,,,0.00,weatherlink.com 1.10,2013-07-23 21:56:00,
2013-07-23 15:11:00,53.0,52.0,30.14,WNW,287,2.0,8.0,95,0.00,,,0.00,weatherlink.com 1.10,2013-07-23 22:11:00,
2013-07-23 15:26:00,52.8,52.0,30.14,West,260,2.0,7.0,95,0.00,,,0.00,weatherlink.com 1.10,2013-07-23 22:26:00,
2013-07-23 15:41:00,53.0,52.0,30.14,WNW,300,2.0,8.0,95,0.00,,,0.00,weatherlink.com 1.10,2013-07-23 22:41:00,
2013-07-23 15:56:00,52.7,51.0,30.14,West,278,1.0,10.0,95,0.00,,,0.00,weatherlink.com 1.10,2013-07-23 22:56:00,
2013-07-23 16:11:00,52.8,52.0,30.14,West,276,1.0,10.0,96,0.00,,,0.00,weatherlink.com 1.10,2013-07-23 23:11:00,
2013-07-23 16:41:00,52.4,51.0,30.14,NNE,19,3.0,5.0,96,0.00,,,0.00,weatherlink.com 1.10,2013-07-23 23:41:00,
2013-07-23 16:56:00,52.3,51.0,30.14,NE,39,5.0,8.0,96,0.00,,,0.00,weatherlink.com 1.10,2013-07-23 23:56:00,
2013-07-23 17:26:00,52.3,52.0,30.14,WNW,303,1.0,4.0,97,0.00,,,0.00,weatherlink.com 1.10,2013-07-24 00:26:00,
2013-07-23 17:41:00,51.9,51.0,30.14,NNW,347,1.0,7.0,96,0.00,,,0.00,weatherlink.com 1.10,2013-07-24 00:41:00,
2013-07-23 17:56:00,51.8,51.0,30.14,ENE,71,1.0,7.0,96,0.00,,,0.00,weatherlink.com 1.10,2013-07-24 00:56:00,
2013-07-23 18:11:00,51.5,51.0,30.13,WSW,253,1.0,12.0,97,0.00,,,0.00,weatherlink.com 1.10,2013-07-24 01:11:00,
2013-07-23 18:26:00,51.6,51.0,30.13,WSW,238,2.0,7.0,97,0.00,,,0.00,weatherlink.com 1.10,2013-07-24 01:26:00,
2013-07-23 18:41:00,51.5,51.0,30.14,WNW,296,9.0,10.0,97,0.00,,,0.00,weatherlink.com 1.10,2013-07-24 01:41:00,
2013-07-23 18:56:00,51.4,51.0,30.14,West,274,2.0,10.0,97,0.00,,,0.00,weatherlink.com 1.10,2013-07-24 01:56:00,
2013-07-23 19:11:00,51.2,50.0,30.14,West,269,0.0,8.0,97,0.00,,,0.00,weatherlink.com 1.10,2013-07-24 02:11:00,
2013-07-23 19:26:00,51.3,51.0,30.14,West,265,2.0,6.0,98,0.00,,,0.00,weatherlink.com 1.10,2013-07-24 02:26:00,
2013-07-23 19:41:00,51.4,51.0,30.14,WSW,242,1.0,4.0,98,0.00,,,0.00,weatherlink.com 1.10,2013-07-24 02:41:00,
2013-07-23 20:11:00,51.0,51.0,30.14,WNW,299,3.0,6.0,98,0.00,,,0.00,weatherlink.com 1.10,2013-07-24 03:11:00,
2013-07-23 20:26:00,50.6,50.0,30.15,West,275,1.0,6.0,98,0.00,,,0.00,weatherlink.com 1.10,2013-07-24 03:26:00,
2013-07-23 20:41:00,50.4,50.0,30.14,NW,318,0.0,4.0,98,0.00,,,0.00,weatherlink.com 1.10,2013-07-24 03:41:00,
2013-07-23 20:57:00,50.1,50.0,30.14,SW,227,1.0,4.0,98,0.00,,,0.00,weatherlink.com 1.10,2013-07-24 03:57:00,
2013-07-23 21:12:00,50.1,50.0,30.15,WNW,300,0.0,3.0,98,0.00,,,0.00,weatherlink.com 1.10,2013-07-24 04:12:00,
2013-07-23 21:27:00,50.1,50.0,30.15,WNW,284,0.0,2.0,98,0.00,,,0.00,weatherlink.com 1.10,2013-07-24 04:27:00,
2013-07-23 21:42:00,50.2,50.0,30.15,WNW,282,1.0,3.0,98,0.00,,,0.00,weatherlink.com 1.10,2013-07-24 04:42:00,
2013-07-23 21:57:00,50.1,50.0,30.16,West,277,0.0,3.0,98,0.00,,,0.00,weatherlink.com 1.10,2013-07-24 04:57:00,
2013-07-23 22:12:00,50.0,50.0,30.16,West,261,1.0,1.0,98,0.00,,,0.00,weatherlink.com 1.10,2013-07-24 05:12:00,
2013-07-23 22:27:00,50.1,50.0,30.16,West,261,0.0,0.0,98,0.00,,,0.00,weatherlink.com 1.10,2013-07-24 05:27:00,
2013-07-23 22:42:00,50.0,50.0,30.16,SSW,211,0.0,0.0,98,0.00,,,0.00,weatherlink.com 1.10,2013-07-24 05:42:00,
2013-07-23 22:57:00,49.9,49.0,30.15,SSE,168,0.0,0.0,98,0.00,,,0.00,weatherlink.com 1.10,2013-07-24 05:57:00,
2013-07-23 23:12:00,49.8,49.0,30.15,ESE,122,0.0,2.0,98,0.00,,,0.00,weatherlink.com 1.10,2013-07-24 06:12:00,
2013-07-23 23:27:00,49.7,49.0,30.15,South,171,0.0,0.0,98,0.00,,,0.00,weatherlink.com 1.10,2013-07-24 06:27:00,
2013-07-23 23:42:00,49.5,49.0,30.16,SSW,206,0.0,0.0,98,0.00,,,0.00,weatherlink.com 1.10,2013-07-24 06:42:00,
2013-07-23 23:57:00,49.6,49.0,30.16,SW,221,0.0,0.0,98,0.00,,,0.00,weatherlink.com 1.10,2013-07-24 06:57:00,